STARLINK-1267, 45384

Orbit data source: Space-Track

STARLINK-1267, 45384 is a payload satellite owned by SpaceX/Seattle (US) in LEO that was launched on Wed, 18 Mar 2020 UTC via an FALCON 9 launch vehicle from the Air Force Eastern Test Range (AFETR). Payload-class satellites include a variety of spacecraft equipped with specific instruments for various scientific and technological missions. These include communications satellites like Starlink; space stations such as the ISS; scientific satellites like the Hubble; Earth observation satellites from companies like Planet Labs, Umbra, and HawkEye 360; GPS; miniature CubeSats for education and research; and military/defense satellites.

Loading next visibility...
Identifier
45384, 2020-019AA
Orbit
LEO
Last TLE update
1 day ago
Origin
Manufacturer
SpaceX/Seattle
Mission
Operational Commercial Communications
Bus & Motor
STARLINK, Unknown motor
Mass
260 kg wet, ~248 kg dry
Launch date (UTC)
2020-03-18 (5 years ago)
Launch vehicle
FALCON 9
Launch site
Air Force Eastern Test Range (AFETR)
Object type
Payload
Rocket body
Debris
Shape & HBR
Box + 1 Pan, 8.86 m
Radar Cross Section
13.562 m², Large (>1 m²)

Expand to show TLE details & history

TLE from 1 day ago
0 STARLINK-1267
1 45384U 20019AA  25128.14067254  .00001384  00000-0  11179-3 0  9991
2 45384  53.0548  78.9329 0001428  88.7571 271.3582 15.06403987283947
Epoch: 2025-05-08T03:22Z
Definitive object data (Epoch: 2025-05-08T03:22:34.107Z)
Latitude
0.00001°
Longitude
162.07536°
Altitude
548.055 km
Speed
7.589 km/s
True Right ascension
05h 15m 43s
True Declination
0° 00' 00"
Sunlit
Object was in daylight at TLE epoch
Visualization TLE readout
Latitude
12.55079°
Longitude
-32.41212°
Altitude
547.003 km
Speed
7.591 km/s
Apparent Right ascension
19h 22m 31s
Apparent Declination
-31° 18' 19"
Sunlit
Object is in full shadow
Visualization observer readout
Local Sidereal Time
13:43:25
Azimuth
117.793° SE
Elevation
-15.885°
Doppler factor
1
Orbital elements
Apogee altitude
548.459 km
Perigee altitude
546.481 km
Semi-major axis
6,925.607 km
Eccentricity
0.0001428
Inclination
53.0548°
RAAN
78.9329°
Arg. of periapsis
88.7571°
True anomaly
271.34184°
Mean anomaly
271.3582°
Eccentric anomaly
271.35002°
Mean motion
3.76579 °/min
BSTAR
0.00011179
Orbital period
95.6 mins
Loading maneuver chart data...
Loading SW <> Apogee altitude chart data...
Loading historical data...
Loading historical data...
Loading historical data...
Loading historical data...
Loading historical data...
Loading historical data...
Loading historical data...

STARLINK-1267 Visibility forecast

Observer location: undefined°, undefined°

Span
Click to sort rows by Start time (UTC) header in descending order
Start Az.
Max El. time (UTC)
Max El. Az.
Max El.
End time (UTC)
End Az.
7 mins2025-05-09 06:58:44.222Z290.374° WNW2025-05-09 07:01:44.222Z242.077° WSW27.178°2025-05-09 07:05:44.222Z165.902° S
6 mins2025-05-09 22:32:44.222Z198.234° SSW2025-05-09 22:34:44.222Z149.416° SSE35.701°2025-05-09 22:38:44.222Z61.578° ENE
5 mins2025-05-10 00:12:44.222Z286.81° WNW2025-05-10 00:14:44.222Z333.484° NNW26.447°2025-05-10 00:17:44.222Z29.916° NE
4 mins2025-05-10 03:34:44.222Z350.222° N2025-05-10 03:35:44.222Z6.806° NNE15.399°2025-05-10 03:38:44.222Z53.986° ENE
6 mins2025-05-10 05:13:44.222Z324.755° NNW2025-05-10 05:16:44.222Z48.241° ENE36.787°2025-05-10 05:19:44.222Z107.485° ESE
|